Regional Weather Roundup
Issued by NWS

Home | Current Version | Previous Version | Graphics & Text | Print | Product List | Glossary On
Versions: 1 2 3 4 5 6 7 8 9 10 11 12 13 14 15 16 17 18 19 20 21 22 23 24 25 26 27
000
ASUS45 KPSR 290210
RWRAZ

ARIZONA HOURLY REGIONAL WEATHER ROUNDUP
NATIONAL WEATHER SERVICE PHOENIX AZ
700 PM MST SAT MAY 28 2016

NOTE: FAIR INDICATES FEW OR NO CLOUDS BELOW 12,000 FEET WITH NO
SIGNIFICANT WEATHER AND/OR OBSTRUCTIONS TO VISIBILITY.

AZZ001>003-036-290300-
NORTHWEST ARIZONA

CITY           SKY/WX    TMP DP  RH WIND       PRES   REMARKS
KINGMAN        CLEAR     83  25  12 SW13      29.88R
$$

AZZ004>008-015-016-018-290300-
NORTH CENTRAL ARIZONA

CITY           SKY/WX    TMP DP  RH WIND       PRES   REMARKS
GRAND CANYON   MOCLDY    69  26  20 E6        30.10R
WILLIAMS       PTCLDY    68  18  14 S12       30.16R
PRESCOTT       CLEAR     74  18  12 S6        29.99R
FLAGSTAFF      PTCLDY    63  20  19 SW9       30.11R
PAYSON         CLEAR     75  19  12 SW8G15    30.02R
PAGE           PTCLDY    81  27  14 N9        29.93R
$$

AZZ009>014-017-290300-
NORTHEAST ARIZONA

CITY           SKY/WX    TMP DP  RH WIND       PRES   REMARKS
WINSLOW        CLEAR     78  17  10 SW9       29.96R
SAINT JOHNS    PTCLDY    76  18  11 N5        30.00R
WINDOW ROCK    CLEAR     70  21  15 NE3       30.09R
SHOW LOW       CLEAR     68  14  12 SW10      30.08S
$$

AZZ023-290300-
GREATER PHOENIX AREA

CITY           SKY/WX    TMP DP  RH WIND       PRES   REMARKS
PHOENIX        PTCLDY    94  25   8 S6        29.72R
BUCKEYE        CLEAR     91  32  12 S3        29.75R
GLENDALE       PTCLDY    95  21   7 CALM      29.74R
LUKE AFB       CLEAR     94  25   8 W5        29.72R
DEER VALLEY    CLEAR     92  24   8 VRB6      29.75R
SCOTTSDALE     CLEAR     92  23   8 S5        29.77R
MESA-FALCON    CLEAR    N/A N/A N/A SW8       29.73R
MESA-GATEWAY   CLEAR     91  25   9 W6        29.76R
CHANDLER       CLEAR     93  23   8 S12       29.74S
$$

AZZ027-028-290300-
SOUTHWEST MARICOPA COUNTY AND PINAL COUNTY

CITY           SKY/WX    TMP DP  RH WIND       PRES   REMARKS
CASA GRANDE    CLEAR     91  28  10 SW12      29.77S
GILA BEND      FAIR      91  33  13 SW17      29.74R
$$

AZZ503-504-507>509-290300-
SOUTHEAST ARIZONA

CITY           SKY/WX    TMP DP  RH WIND       PRES   REMARKS
TUCSON         CLEAR     88   8   5 SW8       29.87R
DAVIS-MONTHAN  CLEAR     87   9   5 SW12      29.85R
RYAN FIELD     CLEAR     88  14   6 SW14G23   29.85R
NOGALES        CLEAR     79   4   5 SW14      29.96R
SIERRA VISTA   CLEAR     79   6   6 SW13      30.01R
DOUGLAS        CLEAR     80  -1   4 SW10      29.97R
SAFFORD        CLEAR     89  10   5 SE6       29.83R
$$

AZZ020-021-025-026-031-290300-
SOUTHWEST ARIZONA

CITY           SKY/WX    TMP DP  RH WIND       PRES   REMARKS
YUMA           NOT AVBL
$$

CAZ031-033-041-043-047-048-061-290300-
SOUTHERN CALIFORNIA

CITY           SKY/WX    TMP DP  RH WIND       PRES   REMARKS
DOWNTOWN L.A.  CLOUDY    63  55  75 W6        29.90R
L.A. AIRPORT   CLOUDY    61  54  77 W9        29.91R
SAN DIEGO      CLOUDY    63  55  75 NW5       29.93R
BURBANK        SUNNY     62  54  74 S12       29.89R
ONTARIO        PTCLDY    67  53  61 SW15G21   29.88R
RIVERSIDE      CLEAR     70  54  56 W10G18    29.87R
PALM SPRINGS   CLEAR     91  48  22 MISG      29.75R
IMPERIAL       CLEAR     91  36  14 SE16      29.70R
BLYTHE         CLEAR     93  36  13 S18       29.72R
NEEDLES        CLEAR     95  29   9 SW15G21   29.72R
$$

NVZ020-UTZ003-290300-
SOUTHERN NEVADA-UTAH

CITY           SKY/WX    TMP DP  RH WIND       PRES   REMARKS
LAS VEGAS      MOCLDY    89  21   8 S5        29.75R
SALT LAKE CITY MOCLDY    73  37  27 N9        30.02R
$$

NMZ009-TXZ055-290300-
NEW MEXICO-WEST TEXAS

CITY           SKY/WX    TMP DP  RH WIND       PRES   REMARKS
ALBUQUERQUE    PTCLDY    78  19  11 SW7       30.03R
EL PASO        PTCLDY    86   1   4 W7        29.93R
$$


........................KEY........................
SKY/WX - SKY CONDITION/WEATHER
TMP    - TEMPERATURE IN FAHRENHEIT
DP     - DEW POINT IN FAHRENHEIT
RH     - RELATIVE HUMIDITY IN PERCENT
WIND   - DIRECTION AND SPEED IN MILES PER HOUR (MPH)
VRB    - VARIABLE WIND DIRECTION
PRES   - MEAN SEA LEVEL PRESSURE IN INCHES OF MERCURY
         F - FALLING PRESSURE   R - RISING PRESSURE
         S - STEADY PRESSURE
VSB    - VISIBILITY IN MILES
HX     - HEAT INDEX IN FAHRENHEIT
WCI    - WIND CHILL INDEX IN FAHRENHEIT
TC     - TEMPERATURE IN CELSIUS WHICH IS ALSO KNOWN AS
         TEMPERATURE IN CENTIGRADE
AFB    - AIR FORCE BASE
         LUKE AFB IS LUKE AIR FORCE BASE
         DAVIS-MONTHAN IS DAVIS-MONTHAN AIR FORCE BASE
NAS    - NAVAL AIR STATION
         EL CENTRO NAS IS EL CENTRO NAVAL AIR STATION
N/A    - NOT AVAILABLE





USA.gov is the U.S. government's official web portal to all federal, state and local government web resources and services.